Milwaukee, WI

11:43 PM CST on December 11, 2017 (GMT -0600)
Gen Mitchell International

Weather History for KMKE - November, 2013

Change the Weather History Date:

Sunday, November 17, 2013

  Actual Average Record
Temperature  
Mean Temperature 54 °F 38 °F  
Max Temperature 65 °F 45 °F 72 °F (2016)
Min Temperature 42 °F 31 °F 1 °F (1959)
Degree Days  
Heating Degree Days 11 27  
Month to date heating degree days 372 389  
Since 1 July heating degree days 912 974  
Cooling Degree Days 0 0  
Month to date cooling degree days 0 0  
Year to date cooling degree days 688 641  
Growing Degree Days 3 (Base 50)    
Moisture  
Dew Point 51 °F    
Average Humidity 79    
Maximum Humidity 93    
Minimum Humidity 65    
Precipitation  
Precipitation 2.11 in 0.10 in 2.14 in (1928)
Month to date precipitation 2.86 1.55  
Year to date precipitation 38.12 31.56  
Snow  
Snow 0.00 in 0.10 in 3.00 in (1924)
Month to date snowfall 1.2 0.6  
Since 1 July snowfall 1.2 0.9  
Since 1 September snowfall 1.2 0.9  
Snow Depth 0.00 in    
Sea Level Pressure  
Sea Level Pressure 29.31 in    
Wind  
Wind Speed 16 mph (SW)    
Max Wind Speed 36 mph    
Max Gust Speed 50 mph    
Visibility 6 miles    
Events Fog , Rain , Thunderstorm    
T = Trace of Precipitation, MM = Missing Value Source: NWS Daily Summary

Daily Weather History Graph

Daily Weather History Graph

Search for Another Location

Airport or City:

Trip Planner

Search our weather history database for the weather conditions in past years. The results will help you decide how hot, cold, wet, or windy it might be!

Date:

Astronomy

Nov. 17, 2013 Rise Set
Actual Time 6:46 AM CST 4:26 PM CST
Civil Twilight 6:15 AM CST 4:56 PM CST
Nautical Twilight 5:41 AM CST 5:31 PM CST
Astronomical Twilight 5:07 AM CST 6:04 PM CST
Moon 4:43 PM CST (11/17) 6:40 AM CST (11/17)
Length of Visible Light 10h 40m
Length of Day
9h 39m
Full, 100% of the Moon is Illuminated
Nov 17
Full
Nov 25
Last Quarter
Dec 2
New
Dec 9
First Quarter
Dec 17
Full

Hourly Weather History & Observations

Time (CST) Temp. Windchill Dew Point Humidity Pressure Visibility Wind Dir Wind Speed Gust Speed Precip Events Conditions
12:52 AM 60.1 °F - 55.0 °F 83% 29.53 in 10.0 mi SSW 16.1 mph 23.0 mph N/A   Overcast
1:52 AM 60.1 °F - 55.0 °F 83% 29.52 in 10.0 mi SW 18.4 mph - N/A   Overcast
2:52 AM 60.1 °F - 55.0 °F 83% 29.52 in 10.0 mi SSW 13.8 mph - N/A   Overcast
3:52 AM 57.9 °F - 55.0 °F 90% 29.49 in 10.0 mi SSW 6.9 mph - N/A   Mostly Cloudy
4:52 AM 57.0 °F - 54.0 °F 89% 29.47 in 8.0 mi South 6.9 mph - N/A   Scattered Clouds
5:37 AM 57.9 °F - 54.0 °F 87% 29.47 in 9.0 mi South 10.4 mph - N/A   Mostly Cloudy
5:52 AM 57.0 °F - 54.0 °F 89% 29.46 in 9.0 mi South 11.5 mph - N/A   Overcast
6:11 AM 57.9 °F - 55.0 °F 90% 29.44 in 7.0 mi SSE 9.2 mph - 0.00 in Rain Light Rain
6:52 AM 54.0 °F - 52.0 °F 93% 29.41 in 6.0 mi ESE 8.1 mph - 0.01 in   Overcast
7:24 AM 53.1 °F - 52.0 °F 96% 29.38 in 2.0 mi SE 9.2 mph - 0.00 in Rain Light Rain
7:41 AM 54.0 °F - 53.1 °F 97% 29.37 in 1.0 mi SSE 9.2 mph - 0.00 in Rain Light Rain
7:52 AM 54.0 °F - 53.1 °F 97% 29.36 in 1.0 mi SE 11.5 mph - 0.00 in Rain Light Rain
8:13 AM 57.9 °F - 57.0 °F 97% 29.35 in 1.5 mi South 11.5 mph - 0.01 in Rain Light Rain
8:29 AM 57.9 °F - 57.0 °F 97% 29.33 in 4.0 mi South 13.8 mph - 0.02 in   Overcast
8:50 AM 60.8 °F - 57.2 °F 88% 29.32 in 4.0 mi South 15.0 mph 20.7 mph 0.02 in   Overcast
8:52 AM 60.1 °F - 59.0 °F 96% 29.32 in 4.0 mi South 12.7 mph - 0.02 in   Overcast
9:04 AM 61.0 °F - 59.0 °F 93% 29.31 in 4.0 mi South 12.7 mph - N/A   Overcast
9:43 AM 64.0 °F - 61.0 °F 90% 29.29 in 10.0 mi South 16.1 mph 27.6 mph N/A   Mostly Cloudy
9:52 AM 64.9 °F - 61.0 °F 87% 29.28 in 10.0 mi South 21.9 mph 32.2 mph N/A   Overcast
10:37 AM 64.0 °F - 61.0 °F 90% 29.26 in 1.2 mi SSW 13.8 mph 21.9 mph 0.05 in Rain , Thunderstorm Light Thunderstorms and Rain
10:44 AM 62.1 °F - 60.1 °F 93% 29.25 in 0.5 mi WSW 16.1 mph 24.2 mph 0.29 in Fog , Rain , Thunderstorm Heavy Thunderstorms and Rain
10:52 AM 61.0 °F - 59.0 °F 93% 29.24 in 0.8 mi SW 17.3 mph 27.6 mph 0.75 in Rain , Thunderstorm Light Thunderstorms and Rain
10:57 AM 62.1 °F - 57.0 °F 84% 29.23 in 2.5 mi WSW 17.3 mph 27.6 mph 0.00 in Rain Light Rain
11:04 AM 62.1 °F - 55.9 °F 80% 29.23 in 10.0 mi SW 16.1 mph 26.5 mph 0.00 in Rain Light Rain
11:16 AM 61.0 °F - 57.0 °F 87% 29.22 in 3.0 mi SW 9.2 mph - 0.02 in Rain , Thunderstorm Light Thunderstorms and Rain
11:45 AM 63.0 °F - 57.9 °F 84% 29.17 in 10.0 mi SSW 11.5 mph - 0.04 in   Overcast
11:52 AM 63.0 °F - 57.9 °F 84% 29.17 in 10.0 mi SW 12.7 mph 26.5 mph 0.04 in   Overcast
12:10 PM 63.0 °F - 57.9 °F 84% 29.15 in 9.0 mi WNW 8.1 mph - 0.00 in Rain , Thunderstorm Light Thunderstorms and Rain
12:18 PM 61.0 °F - 55.9 °F 83% 29.15 in 1.5 mi NNW 17.3 mph 23.0 mph 0.00 in Rain , Thunderstorm Heavy Thunderstorms and Rain
12:21 PM 59.0 °F - 55.0 °F 87% 29.17 in 0.8 mi NW 13.8 mph 23.0 mph 0.04 in Rain , Thunderstorm Thunderstorms and Rain
12:52 PM 57.0 °F - 55.0 °F 93% 29.19 in 0.5 mi Variable 6.9 mph - 0.63 in Fog , Rain , Thunderstorm Heavy Thunderstorms and Rain
1:05 PM 57.0 °F - 54.0 °F 89% 29.13 in 1.8 mi Variable 6.9 mph - 0.21 in Rain , Thunderstorm Thunderstorms and Rain
1:09 PM 57.0 °F - 53.1 °F 87% 29.13 in 3.0 mi WSW 8.1 mph - 0.23 in Rain , Thunderstorm Thunderstorms and Rain
1:18 PM 57.0 °F - 53.1 °F 87% 29.14 in 6.0 mi SSW 9.2 mph - 0.24 in Rain Light Rain
1:35 PM 55.9 °F - 53.1 °F 90% 29.18 in 1.8 mi WSW 12.7 mph - 0.28 in Rain Light Rain
1:39 PM 55.9 °F - 53.1 °F 90% 29.20 in 0.8 mi WSW 16.1 mph 21.9 mph 0.34 in Rain Heavy Rain
1:52 PM 57.0 °F - 55.0 °F 93% 29.17 in 1.0 mi WSW 9.2 mph 19.6 mph 0.43 in Rain Rain
1:55 PM 57.0 °F - 55.0 °F 93% 29.17 in 3.0 mi WSW 10.4 mph - 0.01 in Rain Rain
2:26 PM 55.9 °F - 51.1 °F 84% 29.18 in 1.8 mi WSW 19.6 mph 41.4 mph 0.07 in Rain Rain
2:31 PM 55.0 °F - 50.0 °F 83% 29.10 in 2.5 mi NNW 15.0 mph 28.8 mph 0.09 in Rain Rain
2:38 PM 55.0 °F - 51.1 °F 86% 29.05 in 7.0 mi Variable 4.6 mph 21.9 mph 0.09 in Rain Light Rain
2:52 PM 55.9 °F - 51.1 °F 84% 29.09 in 10.0 mi SSW 6.9 mph - 0.09 in   Scattered Clouds
3:50 PM 55.4 °F - 51.8 °F 88% 29.14 in 3.0 mi WSW 16.1 mph 21.9 mph 0.00 in Rain Light Rain
3:52 PM 55.0 °F - 51.1 °F 86% 29.15 in 2.0 mi WSW 18.4 mph - 0.00 in Rain Light Rain
3:59 PM 54.0 °F - 51.1 °F 90% 29.15 in 1.5 mi NW 16.1 mph 29.9 mph 0.00 in Rain Light Rain
4:03 PM 54.0 °F - 50.0 °F 86% 29.16 in 3.0 mi NW 25.3 mph 41.4 mph 0.00 in Rain Light Rain
4:12 PM 50.0 °F - 44.1 °F 80% 29.19 in 7.0 mi NW 29.9 mph 46.0 mph 0.00 in Rain Light Rain
4:25 PM 48.9 °F - 44.1 °F 83% 29.23 in 8.0 mi WNW 25.3 mph 44.9 mph 0.00 in Rain Light Rain
4:52 PM 46.9 °F - 42.1 °F 83% 29.29 in 5.0 mi WNW 24.2 mph 42.6 mph 0.01 in Rain Light Rain
5:21 PM 46.0 °F 37.4 °F 39.9 °F 79% 29.33 in 6.0 mi West 25.3 mph 41.4 mph 0.07 in Rain Light Rain
5:52 PM 45.0 °F 35.8 °F 39.9 °F 82% 29.37 in 8.0 mi West 26.5 mph 39.1 mph 0.10 in Rain Light Rain
6:30 PM 46.0 °F 37.8 °F 39.9 °F 79% 29.39 in 9.0 mi West 23.0 mph 39.1 mph 0.03 in Rain Light Rain
6:52 PM 46.0 °F 37.6 °F 41.0 °F 83% 29.42 in 10.0 mi West 24.2 mph 38.0 mph 0.03 in Rain Light Rain
7:52 PM 46.0 °F 37.6 °F 37.9 °F 73% 29.47 in 10.0 mi West 24.2 mph 35.7 mph 0.00 in   Overcast
8:24 PM 46.0 °F 38.5 °F 37.0 °F 71% 29.49 in 10.0 mi West 19.6 mph 40.3 mph N/A   Overcast
8:34 PM 46.0 °F 37.8 °F 37.0 °F 71% 29.50 in 10.0 mi West 23.0 mph 35.7 mph N/A   Overcast
8:52 PM 46.0 °F 37.4 °F 36.0 °F 68% 29.53 in 10.0 mi West 25.3 mph 36.8 mph N/A   Mostly Cloudy
9:52 PM 45.0 °F 35.8 °F 35.1 °F 68% 29.57 in 10.0 mi West 26.5 mph 39.1 mph N/A   Mostly Cloudy
10:52 PM 44.1 °F 35.7 °F 34.0 °F 68% 29.62 in 10.0 mi West 20.7 mph 29.9 mph N/A   Mostly Cloudy
11:52 PM 42.1 °F 33.6 °F 33.1 °F 70% 29.63 in 10.0 mi West 18.4 mph 28.8 mph N/A   Partly Cloudy